Flag for United Kingdom Weather past 2 weeks in Darlington, England, United Kingdom

Now
64 °F

Passing clouds.


Feels Like: 64 °F
Forecast: 55 / 65 °F
Wind: 14 mph from Southwest

Location: Tees-Side

Current Time: Jul 6, 2015 at 10:54:16 AM

Latest Report: Jul 6, 2015 at 10:20 AM


Visibility: N/A

Pressure: 29.98 "Hg

Humidity: 64%

Dew point: 52 °F

Location of DarlingtonLocation

Historic Weather in Darlington — Graph

°F

Darlington temperature yesterday

Maximum temperature yesterday: 68 °F (at 3:20 PM)
Minimum temperature yesterday: 50 °F (at 5:50 AM)
Average temperature yesterday: 61 °F

Past Weeks' High & Low Weather Summary

 TemperatureHumidityPressure
High88 °F (Jul 1, 1:20 PM)100% (Jun 26, 8:20 AM)30.30 "Hg (Jun 26, 8:20 AM)
Low46 °F (Jun 24, 5:50 AM)31% (Jul 1, 1:20 PM)29.74 "Hg (Jun 22, 6:50 AM)
Average64 °F66%30.00 "Hg
* Reported Jun 21 9:20 AM — Jul 6 9:20 AM, Darlington, Weather by CustomWeather, © 2015

Note: Actual official high and low records may vary slightly from our data, if they occured in-between our weather recording intervals... More about our weather records

Advertising

Darlington weather history for previous 24 hours

 ConditionsComfort  
Time TempWeatherWind HumidityBarometerVisibility
9:20 AM
Mon, Jul 6
63 °FPassing clouds.12 mph68%29.98 "HgN/A
8:50 AM63 °FPassing clouds.13 mph68%29.98 "HgN/A
8:20 AM59 °FPassing clouds.10 mph82%29.98 "HgN/A
7:50 AM57 °FPassing clouds.10 mph82%29.98 "HgN/A
7:20 AM57 °FPassing clouds.10 mph82%29.98 "HgN/A
6:50 AM54 °FPassing clouds.7 mph88%29.98 "HgN/A
6:20 AM52 °FPassing clouds.3 mph94%29.98 "HgN/A
5:50 AM50 °FPassing clouds.8 mph94%29.98 "HgN/A
9:50 PM
Sun, Jul 5
55 °FPartly sunny.8 mph88%29.92 "HgN/A
9:20 PM57 °FPartly sunny.10 mph88%29.92 "HgN/A
8:50 PM57 °FPartly sunny.10 mph88%29.92 "HgN/A
8:20 PM55 °FScattered clouds.9 mph94%29.92 "HgN/A
7:50 PM55 °FBroken clouds.8 mph94%29.89 "HgN/A
7:20 PM55 °FPartly sunny.5 mph88%29.92 "Hg5 mi
6:50 PM55 °FRain. Broken clouds.9 mph94%29.92 "Hg3 mi
6:20 PM57 °FLight rain. Broken clouds.16 mph88%29.92 "Hg6 mi
5:50 PM66 °FThunderstorms. Scattered clouds.15 mph64%29.89 "HgN/A
5:20 PM66 °FPassing clouds.12 mph60%29.89 "HgN/A
4:50 PM68 °FScattered showers. Scattered clouds.13 mph56%29.89 "HgN/A
4:20 PM68 °FScattered clouds.6 mph56%29.92 "HgN/A
3:50 PM68 °FPassing clouds.6 mph56%29.92 "HgN/A
3:20 PM68 °FPassing clouds.6 mph53%29.95 "HgN/A
2:50 PM66 °FPassing clouds.5 mph60%29.95 "HgN/A
2:20 PM66 °FPassing clouds.6 mph60%29.98 "HgN/A
1:50 PM66 °FPassing clouds.6 mph60%29.98 "HgN/A
1:20 PM66 °FPassing clouds.3 mph60%29.98 "HgN/A
12:50 PM64 °FPassing clouds.6 mph64%29.98 "HgN/A
12:20 PM64 °FPassing clouds.6 mph64%30.01 "HgN/A
11:50 AM64 °FPassing clouds.5 mph60%30.01 "HgN/A
11:20 AM64 °FPassing clouds.7 mph60%30.01 "HgN/A
10:50 AM63 °FPassing clouds.6 mph68%30.04 "HgN/A
10:20 AM61 °FPassing clouds.5 mph72%30.04 "HgN/A
Weather by CustomWeather, © 2015

See weather overviewHow to use our weather pages